Regional Weather Roundup
Issued by NWS Charleston, SC

Current Version | Previous Version | Graphics & Text | Print | Product List | Glossary On
Versions: 1 2 3 4 5 6 7 8 9 10 11 12 13 14 15 16 17 18 19 20 21 22 23 24 25 26 27 28 29 30 31 32 33 34 35 36 37 38 39 40 41 42 43 44 45 46 47 48 49 50
000
ASUS42 KCHS 270812
RWRCHS

REGIONAL WEATHER ROUNDUP
NATIONAL WEATHER SERVICE CHARLESTON SC
400 AM EDT MON APR 27 2015

NOTE: "FAIR" INDICATES FEW OR NO CLOUDS BELOW 12,000 FEET WITH NO
SIGNIFICANT WEATHER AND/OR OBSTRUCTIONS TO VISIBILITY.

NOT ALL STATIONS ARE QUALITY CONTROLLED BY THE NATIONAL
WEATHER SERVICE. USE DATA WITH CAUTION...ESPECIALLY
DEWPOINT OBSERVATIONS.

SCZ027-030-031-034>040-042>050-270900-
...SOUTHEAST SOUTH CAROLINA...

CITY           SKY/WX    TMP DP  RH WIND       PRES   REMARKS
N CHARLESTON   CLOUDY    55  51  86 N8        29.75R
WATERFRONT PRK   N/A     57 N/A N/A N16         N/A
MOUNT PLEASANT PTSUNNY   54  52  94 MISG      29.75R
PINOPOLIS      NOT AVBL
MONCKS CORNER  PTSUNNY   54  50  87 NE5       29.75S
SUMMERVILLE    CLOUDY    54  54 100 N6        29.77S
BEAUFORT MCAS  CLOUDY    59  54  83 N12       29.73R
BEAUFORT ARPT  CLOUDY    61  57  88 N14       29.72S
HILTON HEAD IS CLOUDY    63  59  88 N9        29.72S
WALTERBORO     PTSUNNY   54  50  87 NE9       29.76F
ALLENDALE      PTSUNNY   55  52  88 NE5       29.75F

...SOUTHERN MIDLANDS AND PEE DEE...

CITY           SKY/WX    TMP DP  RH WIND       PRES   REMARKS
GEORGETOWN     NOT AVBL
KINGSTREE      NOT AVBL
ORANGEBURG     MOCLDY    53  48  83 NE5       29.77S
BARNWELL       FAIR      54  52  94 NE5       29.78S
AIKEN          PTSUNNY   52  45  76 NE5       29.80S
MANNING        LGT RAIN  52  39  62 N3        29.77R
COLUMBIA       CLOUDY    54  47  77 N5        29.78R
SUMTER         CLEAR     51  48  89 N6        29.76R
FLORENCE       MOCLDY    52  48  86 N7        29.76S
MYRTLE BEACH   MOCLDY    52  48  87 NW5       29.77R
N MYRTLE BEACH MOCLDY    51  49  92 NE6       29.73F

$$

GAZ063-065-086>088-099>101-113>116-118-119-134>141-150-270900-
...SOUTHEAST GEORGIA...

CITY           SKY/WX    TMP DP  RH WIND       PRES   REMARKS
SAVANNAH ARPT  CLOUDY    63  58  83 N12       29.72S
HUNTER AAF     CLOUDY    65  60  85 NE9       29.69R
FORT STEWART   CLOUDY    65  59  83 N7        29.70R
STATESBORO       N/A     59  56  88 NE7       29.75R
SYLVANIA       CLOUDY    58  55  91 NE5       29.76R
CLAXTON        CLOUDY    61  59  94 NE7       29.74R

...CSRA...CENTRAL AND FAR SOUTHEAST GEORGIA...

CITY           SKY/WX    TMP DP  RH WIND       PRES   REMARKS
THOMSON        MOCLDY    55  54  94 CALM      29.82F
AUGUSTA-BUSH   CLEAR     52  48  86 CALM      29.77S
AUGUSTA-DANIEL MOCLDY    56  49  77 NE3       29.78S
SWAINSBORO     NOT AVBL
VIDALIA        MOCLDY    61  57  88 NE10      29.74R
EASTMAN        FAIR      65  62  92 NE6       29.77R
HAZLEHURST     FAIR      68  63  83 N10       29.71S
ALMA           CLOUDY    70  60  70 N7        29.70R
WAYCROSS       CLOUDY    75  69  82 W6        29.69R
JESUP          FAIR      72  64  78 NE7       29.70R
BAXLEY         FAIR      70  61  73 NE8       29.70R
BRUNSWICK      CLOUDY    72  64  78 NW3       29.70R
SAINT SIMONS   CLOUDY    73  68  84 NW8       29.68R

$$

SCZ027-028-034-036>038-045-046-048>050-GAZ119-141-270900-
...LAKE AND SUPPLEMENTAL COASTAL OBSERVATIONS...

STATION/POSITION TIME  TEMP    WIND        PRES    WAVE   SWELL
                       AIR SEA DIR/SP/G            HT/PER HT/PER/DIR
                 (UTC) (F)     (DEG/KT/KT) (MB)    (FT/S) (FT/S/D)
UPR LAKE MARION  NOT AVBL
WINYAH BAY       0645   53     360/  5     1006.0
LAKE MURRAY      0700   53      20/  2/  4 1008.1S
ACE BASIN NERRS  NOT AVBL
FORT PULASKI     0700           20/ 11/ 14   N/A
SAPELO ISLAND    0700   74     340/ 11     1005.0S

$$

ANZ835-935-AMZ111-154-330-350-352-354-370-450-454-472-270900-
...C-MAN AND BUOY OBSERVATIONS...

STATION/POSITION TIME  TEMP    WIND        PRES    WAVE   SWELL
                       AIR SEA DIR/SP/G            HT/PER HT/PER/DIR
                 (UTC) (F)     (DEG/KT/KT) (MB)    (FT/S) (FT/S/D)
BUOY 41004       0750   63 71   30/ 16/ 17 1005.0S   5/ 5   2/ 8
BUOY 41008       0750   68 71   50/ 17/ 19 1004.8F   2/ 3
FOLLY BEACH CMAN 0800   56     360/ 11/ 13 1006.8F
CAPERS NEARSHORE 0708   58      20/ 16/ 19 1006.8F
FRIPP NEARSHORE  0700   63      40/ 16/ 17 1005.8F


STATION/POSITION TIME  TEMP    WIND        PRES    WAVE   SWELL
                       AIR SEA DIR/SP/G            HT/PER HT/PER/DIR
                 (UTC) (F)     (DEG/KT/KT) (MB)    (FT/S) (FT/S/D)
5E ST. MARYS GA  0721      71                N/A     1/ 4
FRYING PAN BUOY  0750   61 71   20/ 14/ 16 1005.8F   4/ 6   2/160/ 8
BUOY 41025       0750   60 75   20/ 19/ 23 1004.5F   6/10   3/ 60/10
CAPE LOOKOUT NC  0700   54     330/ 10/ 12 1006.5R
BUOY 41002       0750   67 70   30/  8/ 10 1003.2F   7/ 8   7/230/ 8
BUOY 41010       0720   80 79  260/ 17/ 21 1004.5F
ST AUGUSTINE FL  0800   74 67  250/  7/  9 1006.9R


$$


USA.gov is the U.S. government's official web portal to all federal, state and local government web resources and services.